Theta_e
313 316 317 318 318 316 315 316 316 315 315 315 317 317 316 317 317 315 314 311 310 313 316 316 316 317 317 316 312 308 307 307 307 306 305 304 303 304 304 304 305 305 305 305 305 305 305 306 307 308 309 309 310 310 312 315 315 314 313 313 313 313 314 315 315 313 312 310 310 312 312 312 312 312 312 312 312 313 313 312 313 312 311 311 310 309
313 317 318 318 317 315 315 315 314 313 313 314 315 316 316 317 316 314 313 311 310 313 315 314 314 315 315 316 314 308 308 308 308 307 306 304 303 303 303 303 303 304 304 305 304 304 305 306 307 307 308 309 310 310 312 315 314 313 313 313 314 314 315 315 314 313 311 310 309 309 309 309 309 308 308 308 307 307 307 307 307 307 307 307 306 306
314 317 318 316 314 313 312 311 311 312 313 314 314 315 316 316 316 314 312 309 309 312 314 313 312 315 315 315 314 309 309 308 306 306 305 304 304 302 302 302 303 303 304 304 304 304 305 306 306 307 308 308 309 310 312 313 312 313 313 312 312 312 311 311 310 309 308 308 308 307 307 307 306 306 305 305 305 305 305 305 305 305 305 305 306 306
317 317 315 313 312 312 311 309 310 311 312 313 314 314 316 316 316 317 313 309 309 310 312 312 312 315 316 315 313 308 306 305 302 303 303 303 303 302 302 303 303 303 303 303 304 304 305 306 306 307 307 308 309 310 311 311 311 311 310 309 309 308 307 307 307 306 306 307 307 306 306 306 305 305 305 305 305 305 305 305 305 305 305 305 305 305
318 314 310 311 312 313 312 309 310 312 313 314 314 314 316 315 315 316 314 311 310 310 309 311 315 318 317 317 313 306 303 303 302 302 302 302 302 302 302 302 302 302 303 303 303 304 305 306 306 306 307 308 309 309 310 309 309 308 307 306 306 306 306 305 305 306 305 305 306 305 305 305 305 304 304 304 304 304 304 304 303 303 303 303 303 303
316 311 309 310 310 312 312 311 312 314 315 315 314 313 314 314 314 314 313 312 315 316 311 311 320 322 317 316 314 307 304 304 303 302 303 302 301 301 301 301 302 302 302 303 304 305 305 305 306 306 306 307 308 308 308 307 306 306 305 305 305 305 304 304 304 304 304 304 304 304 304 304 303 303 303 303 303 302 302 302 302 302 302 302 302 302
313 309 310 311 311 312 313 312 313 313 315 317 316 313 312 313 313 313 313 314 318 319 311 309 318 321 317 317 314 307 306 306 304 303 303 302 301 300 300 301 301 302 302 303 304 304 305 305 305 305 306 306 306 306 305 305 305 304 304 304 303 303 303 303 303 303 303 303 303 303 303 302 302 302 302 302 301 301 301 301 301 300 300 300 300 300
312 310 311 313 312 313 313 314 313 312 315 318 316 313 311 311 313 313 314 315 317 317 312 309 314 317 317 318 314 307 308 309 306 305 303 302 301 300 300 301 301 301 302 303 304 304 304 305 305 305 305 305 305 304 304 304 303 303 303 303 302 302 302 302 302 302 301 301 301 301 301 301 301 301 301 301 300 300 300 300 299 299 299 298 298 298
312 313 313 313 313 313 314 316 313 311 315 317 312 310 310 311 313 313 314 315 314 314 316 313 313 316 318 318 313 308 310 313 312 308 305 303 302 301 301 300 300 301 303 303 304 304 304 304 305 304 304 304 303 303 303 302 302 302 302 302 302 302 302 301 301 301 300 300 300 300 300 300 300 300 299 300 299 299 298 298 298 297 297 297 296 296
312 311 311 312 315 315 315 313 311 312 315 312 308 309 310 310 311 312 314 315 313 314 319 317 314 317 320 318 315 312 312 315 314 310 306 305 303 301 301 300 300 301 302 303 303 303 304 304 303 303 303 302 302 302 302 301 301 301 301 301 301 301 301 301 300 300 300 300 299 299 299 299 299 299 299 298 298 297 297 296 296 296 295 295 295 294
308 307 309 312 313 312 311 307 306 311 311 309 310 311 312 311 310 311 312 312 314 316 318 316 315 317 319 319 317 316 314 313 313 309 306 305 303 302 300 300 300 301 302 302 302 303 303 303 302 302 302 301 301 301 301 301 301 301 301 301 300 301 300 300 299 299 299 299 299 298 298 298 298 298 297 297 297 296 295 295 295 294 294 294 293 293
309 309 310 310 310 309 309 308 305 305 306 309 313 314 315 314 312 312 312 312 317 320 315 310 311 314 318 318 317 316 312 309 310 309 306 305 303 301 300 300 301 302 302 302 302 302 302 302 301 301 301 301 301 301 301 301 300 300 300 300 300 300 300 299 299 299 298 298 298 298 298 297 297 297 296 296 296 295 294 294 294 293 293 293 292 292
312 313 311 309 308 308 312 312 308 306 307 310 313 315 319 319 315 317 317 315 318 318 310 307 310 313 316 316 315 315 311 307 307 307 305 305 304 301 301 301 301 302 302 302 301 301 301 301 301 301 301 301 300 300 300 300 300 300 299 299 299 299 299 299 298 298 298 298 298 297 297 297 296 296 295 295 295 294 294 293 293 292 292 292 291 291
317 316 312 311 309 309 312 314 313 311 309 311 314 317 321 320 319 320 318 316 317 315 308 306 310 314 315 315 314 313 308 303 302 302 302 304 303 302 301 301 301 302 301 301 301 301 301 301 301 301 300 300 300 300 300 300 299 299 299 299 299 299 299 298 298 298 297 297 297 297 296 296 295 295 295 294 294 294 293 293 292 291 291 291 291 291
320 320 314 313 313 310 312 314 315 314 311 312 314 316 319 320 320 322 320 318 318 314 308 307 311 316 316 313 309 306 302 299 300 300 301 302 302 302 302 301 301 302 301 301 301 301 301 301 301 300 300 300 300 300 299 299 299 299 299 298 298 299 298 298 297 297 297 297 297 296 296 296 295 295 294 294 294 293 293 292 291 291 291 291 291 291
319 321 314 311 310 310 311 312 312 313 313 311 311 313 317 318 317 316 314 314 313 313 312 310 313 315 314 310 304 301 301 300 299 300 300 301 300 301 301 301 301 301 301 301 301 301 301 301 300 300 300 300 300 299 299 299 299 298 298 298 298 298 298 298 297 297 296 296 296 296 296 295 295 295 294 294 294 293 292 292 291 291 291 291 291 291
318 318 311 308 308 307 309 310 310 313 315 311 311 314 314 313 314 314 312 309 309 316 317 313 314 313 312 312 306 302 303 302 300 300 301 300 300 300 300 301 301 302 301 301 301 301 301 300 300 300 300 300 299 299 299 298 298 298 298 298 297 297 297 297 297 297 296 296 296 296 296 295 295 295 295 294 294 293 293 292 292 291 291 291 291 290
318 317 311 308 310 307 305 308 308 309 311 311 313 314 312 311 313 314 316 314 313 318 318 314 316 316 315 315 309 306 307 306 302 301 301 301 300 300 300 301 301 302 301 301 301 301 301 300 300 300 300 299 299 299 298 298 298 298 297 297 297 297 297 297 297 296 296 296 296 296 295 295 295 295 294 294 294 293 293 292 292 291 291 291 290 289
316 318 312 307 309 307 304 308 311 308 308 310 312 313 313 315 316 315 317 318 317 319 318 314 314 315 316 316 312 310 311 310 306 302 302 302 301 300 301 301 301 302 301 302 301 301 301 300 300 300 299 299 299 298 298 298 298 297 297 296 296 296 296 296 296 296 296 296 296 295 295 295 295 294 294 293 293 292 292 292 292 291 290 290 289 289
313 318 317 308 306 308 306 309 313 312 308 307 309 311 311 314 316 315 315 317 318 319 319 316 314 315 316 315 313 313 312 312 310 305 304 304 303 302 302 301 301 302 302 302 302 301 301 300 300 299 299 299 298 298 298 298 297 297 297 296 296 296 296 296 296 296 296 295 295 295 295 294 294 293 293 292 292 292 291 291 290 290 289 289 289 288
312 315 317 310 306 309 310 311 313 314 311 309 311 312 311 311 312 314 314 314 315 318 318 318 318 317 314 312 313 314 313 312 312 310 308 305 304 304 303 302 302 303 302 302 302 301 301 300 300 299 299 298 298 298 297 297 297 297 296 296 296 296 296 295 295 295 295 295 295 294 294 293 293 292 292 291 291 291 290 290 289 289 289 288 288 288
313 314 316 312 308 311 312 310 310 312 311 311 312 313 313 313 313 315 316 313 312 315 317 317 319 318 311 307 309 311 311 310 310 310 310 306 304 303 303 303 303 303 303 302 301 301 300 300 299 299 299 298 298 298 297 297 297 296 296 296 296 295 295 295 295 295 294 294 294 293 293 292 292 291 291 291 290 290 289 289 288 288 288 288 288 288
313 315 316 313 311 312 310 307 305 307 309 310 311 312 314 314 314 317 319 315 312 313 313 313 316 317 309 303 304 305 305 305 304 305 306 305 304 303 303 304 304 303 302 302 301 301 300 300 299 299 299 298 298 297 297 297 296 296 296 295 295 295 294 294 294 293 293 293 293 293 292 292 291 291 290 290 289 289 288 288 288 288 288 288 288 288
312 314 315 314 312 312 309 307 305 306 308 309 310 310 312 314 315 316 315 314 314 314 314 314 317 316 309 303 302 301 300 300 300 302 303 303 302 302 303 304 304 302 301 301 301 301 300 300 299 299 299 298 298 298 297 297 296 296 295 295 295 294 294 293 293 293 292 292 292 292 292 291 291 290 290 289 289 288 288 288 288 288 288 288 288 288
314 315 315 315 315 314 313 311 310 308 308 310 312 311 311 313 313 313 312 311 314 317 316 316 318 316 309 305 302 300 299 300 300 301 302 302 301 302 303 303 304 303 302 302 301 301 300 300 300 299 299 299 298 298 297 296 296 295 295 295 294 294 293 293 292 292 291 291 291 291 291 290 290 290 289 289 289 288 288 288 288 288 288 288 288 288
316 316 315 316 318 318 318 317 316 313 310 310 313 311 311 312 312 312 313 313 315 316 316 317 318 315 309 306 305 303 301 302 302 300 301 302 302 303 303 303 304 304 304 304 303 302 301 300 300 300 299 299 298 298 297 297 296 295 295 294 294 293 293 292 292 291 290 289 289 289 289 289 289 289 289 289 288 288 288 288 288 288 288 288 288 288
315 316 315 317 319 319 319 318 317 316 312 312 313 312 311 312 312 313 313 314 315 314 314 316 316 315 310 307 308 306 303 305 305 301 300 302 303 303 303 304 305 306 306 305 303 302 301 301 301 300 299 299 298 298 297 297 296 295 295 294 293 293 292 292 291 290 289 289 288 288 288 288 289 289 288 288 288 288 288 288 288 288 288 288 288 288
316 316 315 317 318 318 318 315 315 316 314 313 313 312 311 311 312 313 314 315 315 314 315 316 315 316 314 309 310 310 306 306 305 302 302 303 304 304 304 304 305 305 305 304 303 303 302 301 301 300 299 299 298 298 297 297 296 295 294 294 293 293 292 292 291 290 289 288 288 288 288 288 288 288 288 288 288 288 288 288 288 289 288 288 288 288
316 316 316 317 316 316 315 312 312 314 315 314 313 312 311 310 311 312 313 314 315 315 316 315 314 316 315 310 310 309 307 306 306 305 305 305 304 304 304 304 305 305 305 305 305 305 303 302 300 300 299 299 298 297 297 297 296 295 294 293 293 293 293 292 292 291 290 289 288 288 288 288 288 288 288 287 287 288 288 288 288 289 289 288 289 288
314 316 317 317 315 315 315 313 312 313 313 313 313 313 312 311 310 311 312 312 313 314 315 313 312 313 313 312 311 309 307 307 306 305 305 304 304 304 303 304 305 306 306 306 306 305 303 301 300 299 299 298 298 298 298 298 297 295 295 294 294 294 293 293 292 291 290 290 289 288 288 288 288 288 287 287 287 287 288 288 288 289 288 288 288 288
313 316 317 316 315 316 315 314 313 313 313 314 314 313 312 311 310 310 311 312 312 313 312 311 311 312 311 310 309 306 304 304 303 303 303 304 304 304 303 304 304 304 304 304 304 303 302 301 300 299 298 298 298 299 299 298 297 296 296 296 296 296 295 294 293 292 291 290 289 288 288 288 288 287 287 287 287 287 287 288 288 288 288 288 288 288
313 313 314 315 317 317 315 314 313 312 313 314 315 314 312 310 310 309 309 310 311 311 312 311 312 313 310 308 306 302 301 303 303 302 302 303 304 303 303 303 303 303 303 303 302 302 302 301 300 299 299 298 298 299 298 298 297 297 297 298 298 297 295 294 292 291 291 291 290 288 288 288 288 287 287 287 287 287 287 288 288 288 288 288 288 288
312 313 313 314 318 317 312 312 312 311 313 315 315 315 313 310 310 309 309 310 310 310 312 313 313 313 310 307 306 303 302 303 303 303 303 303 303 303 303 303 302 302 302 302 301 301 301 300 300 300 300 299 299 298 298 298 298 298 298 298 297 296 295 293 292 292 292 292 291 289 288 288 288 287 287 287 287 287 287 288 288 288 288 288 288 288
311 312 313 314 317 314 309 309 311 313 317 316 312 313 313 311 311 311 310 309 309 309 312 312 312 312 310 308 308 306 304 304 304 304 305 304 303 303 303 303 303 302 301 300 299 299 299 300 300 300 300 300 300 300 299 299 299 298 298 297 296 295 294 293 293 293 293 292 291 290 289 289 288 287 287 287 287 287 287 288 288 288 288 288 288 287
310 311 312 314 314 310 306 309 314 317 317 309 302 304 308 310 312 312 311 310 309 309 311 311 310 310 309 306 306 305 304 304 304 304 304 304 303 303 302 302 301 300 299 298 298 298 298 299 299 299 299 299 299 299 299 299 298 298 297 296 295 295 294 293 293 293 293 292 292 291 290 289 289 288 287 287 287 287 287 287 288 288 288 288 287 287
310 311 312 312 310 307 307 312 317 316 311 303 298 298 302 307 309 310 311 311 310 308 309 310 309 307 304 302 302 303 303 302 302 302 303 302 302 301 300 300 299 298 297 297 297 297 297 297 298 298 298 298 298 297 297 296 296 296 296 296 296 295 294 294 293 293 293 292 291 291 290 289 289 288 288 287 287 287 287 288 288 288 288 288 287 287
310 311 312 312 310 309 309 311 313 313 311 306 302 300 303 307 308 310 312 311 309 308 308 308 309 307 302 299 299 299 299 299 299 300 301 301 300 300 299 298 297 297 297 297 296 296 297 297 298 298 297 297 296 295 294 294 294 294 294 294 295 295 294 294 293 293 292 291 291 290 289 289 289 289 288 288 288 288 288 288 288 288 288 287 287 287
308 310 311 312 312 310 310 310 311 313 314 312 307 302 302 304 305 308 311 310 306 305 305 307 308 307 302 297 296 297 298 298 299 300 300 300 299 298 298 297 296 296 296 296 297 297 297 298 298 297 296 296 295 294 294 293 293 293 293 293 294 294 294 293 293 293 292 291 290 290 290 289 289 289 289 289 289 288 288 288 288 287 287 287 287 287
305 306 308 311 311 309 310 312 313 313 313 311 306 299 297 300 303 305 308 309 305 301 302 305 306 305 301 296 295 296 298 299 301 300 299 298 297 297 296 296 296 296 296 296 297 297 297 298 297 296 295 294 293 293 293 293 292 292 292 292 292 293 293 292 292 291 291 290 290 289 289 289 289 289 289 289 288 288 288 288 288 287 287 287 286 286
305 306 307 310 311 310 310 312 311 311 310 306 300 296 295 299 303 306 308 308 302 297 299 303 304 303 301 297 295 297 300 300 301 300 298 297 296 296 296 296 296 296 296 296 297 297 296 296 295 294 293 293 293 293 292 292 291 291 291 291 291 291 291 291 291 290 290 289 289 289 288 288 288 288 288 288 288 288 288 288 287 287 287 286 286 286
304 305 306 308 310 310 310 311 311 310 308 302 297 295 296 299 303 307 308 303 297 296 298 302 302 301 299 297 296 298 300 299 299 297 296 296 295 295 295 295 296 296 296 295 295 294 294 293 293 292 292 292 292 292 291 291 291 291 291 291 291 291 290 290 290 289 289 289 289 288 288 288 289 288 288 288 288 288 288 287 287 287 286 286 286 286
305 305 305 306 308 309 309 310 310 310 306 299 295 294 296 300 305 305 302 299 297 298 299 300 300 299 299 298 298 298 298 297 296 295 295 295 295 294 294 294 295 295 294 293 293 292 292 292 292 292 292 292 292 291 291 291 291 290 290 290 290 290 290 290 290 289 289 289 289 289 289 289 289 289 288 288 288 288 288 287 287 287 286 286 286 286
306 307 306 306 307 307 307 308 311 311 303 296 295 296 297 301 304 301 297 296 297 298 298 298 298 298 298 298 298 298 296 295 295 294 294 294 294 293 294 294 293 293 292 292 292 292 292 292 291 292 292 292 291 291 291 291 291 290 290 290 290 290 290 290 289 289 289 289 289 289 289 289 289 288 288 288 288 288 287 287 287 286 286 286 286 286
306 307 307 307 307 308 309 309 308 306 299 296 298 300 299 300 301 299 297 296 296 297 298 298 297 297 297 297 297 296 295 294 294 294 294 294 293 293 293 293 292 292 292 292 292 292 292 292 291 291 292 291 291 291 291 291 291 290 290 290 290 290 290 290 289 289 289 289 289 289 289 289 288 288 288 288 288 287 287 287 286 286 286 286 285 285
305 304 304 306 306 305 305 305 301 298 296 296 298 299 299 299 298 298 298 297 296 297 297 297 297 296 296 296 295 295 295 294 294 294 294 294 293 293 293 293 292 292 292 292 292 292 292 292 292 291 291 291 291 291 291 291 290 290 290 290 290 290 290 290 290 290 289 289 289 289 289 289 288 288 288 288 287 287 287 286 286 286 286 285 285 285
298 296 299 302 303 301 299 297 296 295 295 296 297 297 297 298 298 298 298 297 297 297 297 296 297 296 295 295 295 294 294 294 294 294 294 293 293 293 293 293 292 292 292 292 292 292 292 292 291 291 291 291 291 291 291 290 290 290 290 290 290 290 290 290 290 290 290 289 289 289 289 288 288 288 288 287 287 287 286 286 286 286 285 285 285 285
294 293 296 299 301 301 299 296 294 294 295 295 296 296 297 297 298 297 297 296 296 297 296 296 296 295 295 295 294 294 294 293 293 294 293 293 293 293 293 292 292 292 292 292 292 291 291 291 291 291 292 291 291 291 291 291 290 290 290 290 290 290 290 290 290 290 290 289 289 289 288 288 288 288 288 287 287 287 286 286 286 285 285 285 285 284
297 295 296 297 297 297 296 293 291 292 294 294 295 296 296 297 297 296 296 296 296 296 296 295 295 295 295 295 294 294 294 293 293 293 293 293 293 293 293 293 292 292 292 291 291 291 291 291 291 291 291 291 291 291 291 291 291 290 290 290 290 290 290 290 290 290 289 289 289 288 288 288 288 288 288 287 287 287 286 286 285 285 285 284 284 284
296 296 296 296 295 293 292 291 291 292 294 294 294 296 297 297 296 296 296 296 295 295 295 295 295 295 294 294 294 293 293 293 293 293 293 293 293 293 293 292 292 292 292 291 291 291 291 291 291 291 291 291 291 291 291 291 291 290 290 290 290 290 290 290 289 289 289 289 288 288 288 288 288 288 288 287 287 287 286 286 285 284 284 284 283 283
295 296 295 294 295 295 294 293 293 294 295 295 295 297 297 296 296 296 296 296 295 295 295 295 294 294 294 294 294 293 293 293 293 293 293 292 293 293 293 292 292 292 291 291 291 291 291 291 291 291 291 291 291 291 291 291 291 291 290 290 290 290 290 290 289 289 289 289 288 288 288 288 288 288 288 287 287 286 286 285 285 284 284 283 283 283
295 296 295 295 297 297 295 294 294 295 296 295 295 296 296 296 296 296 295 295 295 295 295 295 294 294 294 294 294 294 293 293 293 293 292 292 292 292 292 292 292 292 292 291 291 291 291 291 291 291 291 291 291 291 291 291 291 290 290 290 290 290 290 289 289 289 289 288 288 288 288 288 288 288 287 287 286 286 285 285 284 284 284 283 283 282
Wind_Speed
5 4 5 8 6 8 12 13 7 2 4 1 1 3 6 7 6 1 3 1 1 4 8 9 11 14 12 9 9 10 11 12 12 12 12 12 12 13 12 12 10 8 8 7 7 8 9 9 9 10 10 9 9 8 9 9 9 9 10 11 12 12 11 10 10 10 9 9 9 8 8 8 8 7 6 7 7 6 6 6 5 4 4 4 4 3
4 6 10 9 3 5 10 9 4 1 2 2 3 5 6 7 7 1 3 1 1 4 6 4 9 14 14 12 7 10 10 12 13 12 11 11 12 13 12 11 9 7 7 7 8 9 10 10 10 10 10 10 10 10 11 11 10 10 11 12 13 13 11 10 9 9 11 13 13 13 12 12 12 12 12 12 12 12 11 11 10 10 10 10 10 10
4 9 11 4 6 4 3 5 5 5 4 3 3 4 6 4 4 3 3 2 2 4 4 1 7 12 13 12 7 10 10 8 10 10 8 9 11 11 11 10 9 8 8 9 9 10 11 11 11 11 11 11 11 12 13 12 12 12 12 13 13 13 12 12 12 12 14 16 17 17 17 16 16 16 16 16 16 15 14 14 13 13 13 12 12 12
5 7 6 6 8 6 3 4 7 5 5 6 5 5 6 2 2 5 2 3 2 2 3 3 7 11 12 11 7 6 5 2 5 8 9 11 11 10 12 11 9 9 10 11 11 11 13 13 13 12 12 12 13 13 14 14 14 14 15 15 16 16 16 17 17 17 18 19 20 19 19 18 17 17 16 16 15 14 13 13 12 12 12 11 10 10
6 0 2 7 9 8 5 5 8 6 6 8 8 8 8 4 6 8 1 2 2 3 2 4 8 10 8 9 6 3 2 2 4 7 9 13 13 13 13 12 11 11 12 12 12 13 15 15 14 14 14 14 14 15 16 17 17 17 18 19 20 20 21 21 20 20 20 20 20 19 18 17 16 16 14 13 13 12 11 11 11 11 11 10 9 9
7 4 7 7 6 8 7 6 9 9 6 6 9 11 12 10 8 7 1 1 5 4 2 2 7 5 1 5 4 3 2 5 6 8 10 10 12 14 13 12 13 13 13 13 14 16 17 17 17 16 17 17 18 18 19 20 20 21 22 22 22 23 23 22 22 21 20 19 18 17 17 16 14 14 12 11 11 10 9 9 10 10 10 9 9 9
3 4 6 6 7 9 8 7 8 9 6 5 4 8 12 11 7 6 4 3 5 3 1 1 6 5 3 5 2 4 4 6 7 9 11 11 11 14 14 14 15 15 14 15 17 18 19 20 20 21 21 21 22 22 22 23 23 23 24 23 23 23 23 22 21 20 18 17 17 16 15 14 12 10 10 10 9 8 8 9 9 9 8 8 9 9
4 6 4 5 7 7 8 7 7 10 8 3 1 3 8 9 8 8 7 6 4 2 0 3 3 4 7 6 2 3 5 7 10 11 12 13 13 15 16 17 17 16 16 19 20 21 22 23 24 25 25 24 25 25 25 25 24 24 23 23 22 22 22 21 20 19 17 15 15 13 12 11 9 8 9 9 7 8 8 7 7 7 8 8 8 9
4 7 8 9 8 7 7 2 8 13 7 1 2 2 4 4 5 6 6 6 2 2 4 5 4 4 8 5 1 2 5 9 10 11 13 15 16 17 17 18 18 17 19 22 23 24 25 26 27 27 27 26 26 26 26 25 24 23 22 21 21 20 20 19 19 17 15 13 12 10 8 8 8 8 8 7 7 7 7 6 6 6 7 7 8 8
2 2 5 8 7 6 3 4 4 11 5 4 6 6 6 4 3 3 3 3 2 3 8 7 9 6 6 5 4 2 4 8 5 6 10 15 17 17 16 18 19 19 22 24 25 26 27 28 28 28 28 27 27 26 25 24 23 22 21 20 20 19 18 18 17 15 13 11 9 8 7 7 8 8 7 7 6 6 6 5 5 5 6 6 7 7
2 1 0 4 4 3 6 5 3 0 4 9 8 6 6 4 3 2 1 1 2 6 7 7 13 10 5 4 7 5 2 2 0 2 6 12 15 16 17 19 21 23 25 26 27 28 28 29 29 28 28 27 26 25 24 23 22 21 20 19 18 18 17 17 15 13 11 10 8 8 7 7 7 7 7 6 5 5 5 4 4 5 5 6 6 7
1 2 1 3 4 6 7 5 5 4 3 6 4 5 5 2 2 2 2 2 6 6 2 1 7 9 8 4 4 4 1 1 1 1 4 11 14 15 19 22 24 26 28 28 28 28 29 29 29 28 27 27 25 24 23 22 21 20 19 18 17 17 16 15 14 12 11 9 8 8 7 6 6 7 7 5 4 4 4 3 4 4 5 5 6 6
3 5 2 2 5 7 6 5 5 2 2 3 4 7 6 3 3 4 3 4 6 4 2 2 3 5 8 7 7 6 1 2 1 2 2 9 13 17 22 25 26 29 30 30 29 29 30 29 29 28 27 26 25 24 23 22 21 19 18 17 16 16 16 15 14 12 11 9 8 8 7 6 6 6 6 4 3 3 3 3 3 4 4 4 5 5
3 2 4 4 4 10 11 8 5 5 6 8 8 8 8 5 4 5 4 3 5 1 3 1 3 3 4 6 10 7 2 3 2 3 2 6 12 19 25 27 28 31 31 31 30 30 30 30 29 28 27 26 26 25 23 22 21 19 18 17 15 15 15 15 14 12 11 9 8 8 7 6 6 6 4 3 2 2 2 2 3 3 3 4 4 5
6 3 7 8 5 12 16 8 4 7 8 8 5 4 5 5 4 5 4 3 2 2 2 1 3 5 3 2 3 2 2 2 2 4 4 6 12 19 24 28 30 32 32 32 31 31 31 31 30 29 27 27 26 25 24 23 21 20 19 17 15 14 15 14 13 12 10 9 8 8 6 6 5 4 3 2 1 1 1 2 2 2 3 4 5 6
6 5 3 3 3 13 14 5 5 8 7 4 1 1 4 4 2 1 1 0 2 1 2 4 3 3 2 1 1 0 2 4 3 4 5 6 11 18 24 28 32 34 34 33 32 32 32 32 31 30 28 28 27 26 25 23 22 20 19 18 16 14 13 13 12 11 10 9 8 7 6 5 4 3 2 1 1 1 1 1 2 3 4 5 6 7
4 2 2 2 1 6 6 3 5 3 4 4 3 5 3 1 1 1 1 3 1 5 3 5 4 3 1 2 3 4 4 5 5 4 6 6 10 16 24 31 35 37 37 35 35 35 34 33 32 31 30 30 28 27 25 23 22 20 19 18 17 15 14 13 12 11 10 9 8 7 7 5 5 4 4 4 4 4 3 3 4 5 6 6 7 8
3 1 2 3 2 1 1 3 3 1 1 5 5 6 3 2 1 1 3 1 3 7 3 4 8 6 5 4 3 5 6 7 7 6 6 7 11 16 24 33 38 39 38 37 36 36 36 35 34 33 32 30 28 27 25 24 23 21 19 18 17 15 14 13 13 12 11 10 9 8 8 7 6 6 6 6 6 5 5 5 6 6 7 7 8 8
4 3 2 2 1 2 2 3 3 0 1 0 2 4 3 2 4 4 4 3 4 6 4 4 7 7 7 6 5 8 10 10 9 7 7 9 13 18 25 33 37 38 39 38 38 38 38 37 36 35 33 31 29 27 25 24 23 22 21 19 17 16 15 14 14 13 13 12 11 10 9 9 8 8 8 8 7 7 7 8 8 9 9 9 9 9
3 4 2 1 1 3 3 5 7 6 2 2 1 3 0 2 3 3 3 2 3 5 4 3 4 5 7 8 11 13 12 10 9 7 8 13 18 24 28 33 38 40 42 42 41 41 40 39 37 36 34 32 29 27 26 25 25 23 23 21 20 18 17 16 15 15 14 13 13 12 11 11 10 10 9 9 9 9 10 10 10 10 10 9 10 10
3 4 4 2 1 3 5 7 9 10 8 6 6 7 5 2 0 2 2 1 2 4 4 4 5 3 3 4 10 13 10 8 9 8 9 13 21 27 28 32 38 42 44 44 44 43 42 40 38 36 33 31 29 29 28 27 26 25 24 23 22 21 19 18 17 16 16 15 14 14 13 12 11 11 11 11 11 11 12 11 11 10 10 10 9 9
4 3 3 3 4 6 4 2 2 3 5 7 8 10 11 8 5 4 6 2 1 3 2 3 5 2 3 0 1 4 3 3 5 6 6 10 18 23 25 29 35 40 44 45 45 44 43 41 38 36 34 32 31 31 30 29 28 27 25 24 23 22 20 20 18 17 17 16 16 15 14 13 12 12 12 12 13 13 12 11 11 10 10 8 7 7
4 1 3 2 4 4 0 2 1 3 2 2 4 6 8 8 8 8 7 3 3 3 0 1 4 1 2 1 1 2 2 1 3 7 6 8 14 18 22 27 31 37 43 44 45 45 43 41 38 36 35 34 34 33 32 31 30 28 27 25 24 23 22 20 19 18 18 17 17 16 15 15 14 14 14 14 14 13 12 12 11 10 8 6 5 5
4 2 5 2 0 1 1 1 1 1 1 4 6 5 6 8 7 4 2 2 5 5 4 2 5 2 1 1 1 2 2 2 6 11 11 10 12 15 19 24 29 34 38 41 43 43 42 40 38 37 37 37 36 35 34 33 31 30 28 27 26 24 23 21 20 20 19 18 18 18 17 17 16 15 15 15 14 14 13 12 11 9 7 6 5 6
8 4 5 4 2 3 2 3 4 4 5 7 7 6 8 8 5 2 1 1 5 7 9 7 6 4 3 1 1 2 3 4 7 12 14 13 13 14 15 20 25 30 33 37 41 43 43 42 41 41 41 40 39 38 36 35 33 31 30 28 27 25 23 22 21 21 20 20 20 20 19 18 17 16 16 16 16 15 14 13 11 9 8 7 7 8
10 5 8 8 7 9 8 6 7 5 5 4 4 7 11 13 11 6 3 5 7 6 10 10 7 3 2 1 2 3 3 5 7 10 13 13 13 13 14 17 21 25 28 32 38 42 45 45 45 44 44 43 42 40 38 36 34 33 32 30 28 26 24 23 23 22 22 22 21 21 20 19 18 17 17 17 17 16 15 13 11 10 8 8 8 9
4 3 12 13 13 12 8 4 3 7 7 8 8 11 13 15 15 9 5 7 6 4 7 12 7 4 4 5 6 6 6 7 7 8 12 14 14 15 16 17 19 22 25 29 34 39 43 47 48 48 47 46 43 41 38 37 36 35 34 32 29 26 25 24 24 24 24 23 22 21 20 19 18 18 18 19 18 17 15 14 12 10 9 9 10 11
2 5 15 17 18 12 3 1 4 9 13 14 12 13 13 13 15 14 12 8 7 5 9 7 8 8 10 11 10 9 9 8 6 9 14 15 16 16 16 16 17 19 22 26 30 34 39 45 49 50 49 47 44 41 38 37 37 36 34 32 29 27 26 25 25 25 25 24 23 23 22 20 19 19 20 20 19 18 16 14 13 11 11 11 11 12
1 8 12 13 18 13 1 1 5 7 9 10 13 16 15 15 17 18 18 11 9 10 12 7 13 15 11 11 11 11 11 11 10 14 16 14 14 15 16 16 17 18 20 23 26 30 35 41 46 49 49 47 43 40 38 39 39 37 34 31 29 27 26 26 26 26 26 26 25 24 23 22 21 22 22 21 20 19 17 15 14 13 13 13 13 14
3 6 5 6 13 13 5 3 4 5 4 4 10 13 14 16 18 18 18 14 12 16 13 4 8 12 5 8 9 10 13 15 14 14 15 14 16 17 18 19 19 20 22 24 26 28 30 34 38 43 45 44 42 40 41 42 41 37 34 31 30 29 28 27 27 28 28 27 26 25 24 24 24 24 23 22 22 20 18 16 16 15 15 15 15 16
5 4 3 4 7 9 6 4 3 4 4 4 7 11 12 11 11 13 15 12 11 14 10 2 6 10 5 8 7 10 14 14 12 14 16 17 17 19 20 21 21 21 22 21 21 22 23 26 31 36 41 43 43 43 43 43 38 34 31 29 30 31 30 30 30 29 28 27 25 25 25 25 26 25 25 24 23 22 19 18 18 18 18 18 18 18
6 4 3 4 8 8 6 7 6 2 0 5 12 16 13 9 9 10 11 11 13 13 9 7 11 10 5 7 7 9 12 11 10 14 17 17 17 18 19 20 20 19 17 16 16 16 18 22 25 30 36 40 43 43 42 39 34 31 30 30 31 32 32 32 31 29 27 25 25 26 26 27 27 27 26 25 24 23 20 20 20 21 21 20 20 21
6 5 4 7 9 6 4 8 8 4 1 8 15 16 16 12 10 9 9 12 16 13 10 11 12 7 5 7 7 6 7 8 11 15 18 17 17 17 18 19 18 17 15 14 15 15 15 16 18 21 25 30 35 36 35 32 30 29 30 30 31 31 31 32 31 28 26 25 25 26 27 27 27 27 27 26 25 24 22 22 23 23 23 22 23 23
6 7 5 6 5 3 3 7 7 5 7 8 6 9 17 19 18 15 14 17 17 13 9 5 3 4 7 9 9 9 10 13 17 20 18 15 15 16 17 18 18 17 16 15 16 16 16 16 16 16 17 19 22 23 24 25 25 25 25 25 26 27 29 30 29 27 26 25 25 26 27 27 28 28 28 27 26 25 25 25 25 25 25 25 26 26
8 8 6 4 3 2 4 7 7 8 9 3 4 1 7 13 17 19 18 17 16 14 10 5 3 6 8 9 11 13 16 18 18 18 15 13 15 17 17 19 19 18 17 16 16 16 16 16 16 17 17 17 17 18 20 21 21 21 20 20 21 23 25 27 27 26 26 25 26 26 27 27 28 28 28 28 28 27 27 27 28 28 28 29 29 28
9 8 4 3 3 2 4 8 7 4 2 2 4 3 2 3 7 11 12 13 13 13 12 11 10 6 7 10 10 10 13 13 11 14 15 15 16 18 18 18 17 16 16 15 15 15 15 15 15 15 15 15 16 16 17 17 17 16 17 18 20 21 23 24 25 26 25 25 26 26 26 27 27 27 28 28 29 29 29 30 30 31 31 31 31 30
8 8 4 4 5 3 4 7 2 4 2 3 2 3 5 4 6 9 8 8 10 12 12 12 11 7 7 10 11 10 9 6 4 11 18 19 18 18 18 16 14 13 14 13 14 15 15 15 14 14 15 15 15 15 14 14 14 14 15 16 17 19 22 23 25 25 25 25 25 24 24 24 25 26 27 28 29 30 31 32 33 33 33 32 32 30
3 5 5 6 4 3 3 4 2 4 6 3 4 6 5 2 5 7 4 3 3 9 15 14 12 9 9 10 12 12 8 3 3 8 15 18 19 19 17 16 14 14 15 15 15 16 16 16 16 15 15 15 14 13 13 13 14 14 14 15 16 18 19 21 22 23 23 22 21 21 22 22 23 25 26 27 29 30 31 32 33 33 33 32 31 30
2 0 2 3 3 3 4 5 6 6 4 1 2 1 2 5 9 8 0 3 2 10 19 17 11 10 12 13 16 14 6 4 5 6 10 12 15 17 17 16 16 16 16 16 15 15 16 16 16 16 15 15 14 14 14 14 14 14 15 15 16 17 17 18 18 18 18 19 19 19 20 21 22 23 24 24 25 26 28 29 29 30 30 30 30 29
3 1 2 3 4 5 5 5 4 3 2 1 2 2 4 8 10 7 1 3 3 9 17 17 12 10 15 21 20 11 6 8 6 7 9 9 11 14 15 16 17 17 16 16 16 16 16 16 16 16 16 15 16 16 16 15 15 16 17 17 18 18 18 18 17 17 18 19 19 20 19 19 19 19 19 20 22 23 24 25 26 27 28 28 29 29
2 1 2 3 4 5 6 5 2 2 2 1 3 7 9 7 5 5 3 1 6 10 15 16 15 14 18 24 21 13 14 15 9 6 9 12 12 14 16 16 17 16 16 16 16 16 16 15 15 15 15 16 16 17 16 15 15 16 18 19 20 20 19 18 17 17 18 19 19 19 18 17 17 17 17 19 21 23 24 25 25 26 26 27 28 29
3 1 1 3 3 3 4 3 2 3 3 6 5 7 8 4 2 4 4 8 13 15 16 17 16 16 19 24 25 22 19 16 10 7 11 13 13 14 16 16 17 18 18 17 16 15 14 13 14 15 16 17 18 18 16 15 16 17 19 21 22 21 19 18 17 17 18 18 18 18 18 18 18 18 19 20 22 24 25 25 25 26 26 28 29 30
4 4 3 3 3 2 1 3 4 4 4 15 14 5 3 3 3 8 11 11 11 13 17 19 17 17 21 23 25 24 17 12 12 12 12 14 14 14 16 17 17 18 17 15 14 13 12 12 14 16 17 19 20 20 18 17 17 19 21 23 23 21 19 18 18 18 18 19 19 20 20 20 20 20 21 22 23 25 26 26 26 27 28 29 30 31
3 4 3 3 3 3 2 5 3 2 9 23 16 4 7 8 9 14 14 10 10 13 17 20 18 19 22 22 22 23 17 13 15 15 15 16 16 16 18 18 18 17 16 14 13 12 13 14 15 16 19 21 22 22 21 20 20 21 24 24 24 23 22 20 20 20 20 21 22 22 22 22 22 22 22 23 25 26 27 27 27 28 29 30 31 32
2 2 2 1 3 3 1 3 0 2 16 26 9 2 12 16 12 12 11 10 13 15 15 19 21 21 22 21 19 19 18 15 15 16 17 18 18 19 20 20 19 18 16 15 15 15 16 17 18 19 21 23 24 25 23 22 23 24 25 25 25 26 25 23 23 23 24 24 25 25 25 23 22 22 23 24 26 27 28 28 28 29 30 31 31 32
1 2 2 1 1 1 2 2 1 1 15 22 8 6 17 19 13 11 10 11 16 16 16 20 22 21 22 21 18 18 18 17 17 18 19 20 20 21 22 20 20 19 17 17 17 17 18 19 20 22 24 25 27 27 26 25 25 26 26 26 26 28 28 27 27 27 27 27 27 27 26 24 23 23 22 23 25 26 28 29 29 30 31 31 31 32
1 2 1 0 2 2 1 3 2 1 10 20 12 8 15 17 15 14 12 12 16 17 17 19 19 18 19 20 18 18 17 17 19 20 20 21 22 23 23 22 21 20 19 18 17 17 18 20 22 24 26 28 30 29 29 28 27 27 28 28 29 30 31 32 32 31 31 30 30 29 28 25 24 22 21 22 23 25 27 29 30 31 32 31 31 32
3 6 4 1 1 1 1 1 1 2 7 17 16 11 12 15 18 18 15 13 15 16 17 18 17 18 19 19 19 19 17 17 19 19 20 22 23 23 24 24 23 21 19 17 17 17 19 20 22 24 26 29 31 31 31 30 29 28 29 31 32 33 34 35 35 35 35 33 32 31 29 26 24 22 21 22 23 25 27 29 30 31 31 30 31 31
6 7 4 1 2 2 1 1 2 1 1 10 17 18 16 14 16 19 18 16 16 17 17 18 18 18 20 20 19 18 18 18 17 17 19 21 23 24 25 25 24 21 19 17 17 18 20 22 23 24 26 28 31 33 34 33 30 29 30 31 33 35 36 37 38 38 38 36 34 33 30 27 25 24 23 23 24 25 28 29 30 31 31 30 31 31
6 5 2 3 3 2 1 6 9 4 1 7 17 21 19 16 15 17 17 17 18 18 19 19 20 20 20 19 19 19 19 18 16 16 18 19 21 23 25 26 25 23 21 18 18 20 22 23 24 26 27 29 31 34 37 37 35 34 32 33 34 35 37 38 39 41 41 39 37 35 32 30 28 26 25 25 26 27 29 29 30 31 31 31 31 31
7 6 5 5 2 2 5 14 17 8 2 8 17 18 18 17 16 17 18 19 19 19 19 19 20 21 20 19 19 19 20 18 17 17 18 19 19 20 22 25 27 26 24 21 21 22 24 25 26 27 29 30 31 34 37 38 39 38 37 36 35 35 36 37 39 41 42 41 39 37 34 32 29 27 26 27 28 29 30 30 31 31 31 31 32 31
Wind_Direction
176 186 204 222 216 195 198 207 219 40 65 83 271 264 266 266 267 169 118 45 28 264 254 248 262 266 262 244 189 187 211 214 215 212 207 210 214 219 219 219 222 224 231 231 217 204 187 176 168 159 155 156 158 156 149 141 133 128 123 121 119 113 107 106 104 103 105 106 111 120 122 124 122 116 119 121 114 108 102 99 98 92 81 68 59 56
177 216 229 228 190 178 206 209 201 128 153 220 252 258 263 259 266 241 119 110 119 252 256 240 261 262 261 259 194 170 205 216 214 209 203 205 211 219 218 217 221 222 225 225 211 196 181 173 167 162 160 160 161 159 154 149 144 137 130 126 122 115 110 109 108 106 106 103 101 106 110 107 104 102 104 103 99 95 94 91 87 82 77 71 66 61
198 232 235 196 101 120 188 198 201 219 225 229 233 255 263 257 280 272 147 140 182 235 256 238 264 265 261 255 204 183 210 217 212 210 202 204 211 219 218 218 220 220 220 215 205 190 176 171 168 167 164 162 161 159 158 156 151 144 138 131 123 119 118 115 112 110 107 104 102 101 102 101 100 99 96 91 87 86 84 81 78 73 69 65 60 56
205 239 237 140 135 153 149 178 194 212 230 226 219 237 247 221 260 258 156 113 183 229 292 312 282 274 266 246 208 181 202 212 214 214 211 212 214 219 220 221 217 214 215 206 195 182 173 172 170 167 165 162 161 159 157 154 148 142 135 127 122 119 117 113 109 106 102 99 99 97 95 95 94 91 88 85 83 82 81 79 76 71 66 62 58 55
216 132 119 149 169 184 168 168 186 205 228 221 216 227 242 226 223 244 325 56 224 208 246 288 285 277 260 237 217 143 154 214 211 209 215 216 217 221 222 221 213 209 210 198 183 175 170 170 166 163 164 162 159 155 149 145 140 135 129 123 120 117 113 110 107 104 101 99 99 100 100 99 96 91 88 88 86 85 82 78 73 68 62 56 53 49
234 110 124 148 173 189 185 187 193 204 229 228 215 219 237 245 236 235 236 333 267 238 187 248 270 268 247 238 223 128 180 216 199 205 215 213 215 220 219 215 211 207 202 189 176 170 166 163 160 160 160 156 153 147 142 138 134 130 126 123 120 117 114 111 109 107 105 105 105 105 104 101 97 96 95 91 86 84 79 74 68 62 56 49 44 40
233 132 132 155 174 183 199 216 195 192 227 250 215 209 228 241 238 224 203 213 258 271 81 230 259 264 305 279 189 137 222 220 203 212 211 205 207 213 212 209 208 203 192 180 171 166 163 160 158 157 154 149 146 142 139 136 132 130 127 124 122 120 117 114 112 110 108 108 107 104 102 98 96 98 99 95 88 82 75 69 64 58 53 47 39 35
155 156 157 172 174 181 206 221 182 181 216 241 80 188 208 215 217 212 207 217 250 318 100 187 240 275 279 280 116 138 253 236 215 214 206 201 204 208 210 207 204 196 182 172 168 165 161 159 156 153 149 146 144 141 138 135 132 131 128 126 125 122 120 117 114 111 109 106 103 101 101 102 103 100 99 99 90 80 72 64 59 53 46 43 36 33
142 175 190 183 183 200 211 205 160 178 212 267 73 116 160 182 204 193 202 223 249 313 246 191 164 256 259 251 134 120 269 260 229 207 197 194 198 206 206 203 200 188 175 170 166 163 159 157 154 150 148 145 143 140 137 135 133 132 130 128 127 125 122 119 115 111 108 106 105 104 104 105 105 101 96 95 89 79 73 61 54 50 43 40 34 32
61 196 204 187 198 210 179 45 155 188 202 135 121 99 95 85 93 139 203 212 169 250 248 195 170 225 267 238 215 182 250 262 239 186 187 185 192 201 199 197 194 180 172 169 164 162 158 155 152 149 147 145 143 140 138 137 136 135 134 132 131 129 126 122 117 114 113 114 115 112 106 99 99 98 93 92 89 84 77 62 54 51 45 42 37 33
52 43 282 204 214 161 110 61 29 179 130 136 138 109 102 94 93 117 176 165 225 244 241 198 183 210 261 229 218 220 219 266 4 128 172 176 185 193 192 193 187 177 172 169 165 162 159 155 153 150 148 146 144 143 142 141 139 139 138 137 137 134 130 125 122 124 126 127 126 118 106 99 97 95 91 90 90 87 80 63 55 53 49 45 40 36
111 190 195 195 174 116 109 91 45 40 120 150 160 142 138 136 144 182 157 167 244 239 189 164 182 207 236 222 224 238 167 103 14 55 172 178 180 183 188 191 183 176 173 170 167 164 160 157 154 152 151 149 148 147 146 145 144 144 143 143 143 139 134 133 135 140 140 135 131 123 111 103 99 93 90 87 86 88 82 65 57 52 45 39 37 33
207 208 159 138 169 162 147 117 89 81 189 201 175 165 185 193 178 217 200 193 243 234 94 82 157 206 239 240 262 270 150 120 134 62 142 178 177 181 188 188 181 177 175 172 171 167 163 160 157 157 156 154 154 153 152 151 149 149 148 150 152 147 144 145 147 150 147 141 136 127 116 108 102 96 94 91 83 84 79 63 50 43 38 36 34 31
213 219 158 167 191 191 186 170 167 174 186 195 182 180 195 186 193 224 205 224 259 230 81 111 176 225 250 241 255 264 78 81 116 113 136 169 174 185 189 186 181 179 178 176 174 170 165 164 163 162 161 160 160 159 158 157 155 156 155 157 161 157 154 154 153 154 152 146 139 130 120 111 107 105 103 98 87 76 61 53 49 45 45 39 29 23
221 263 178 180 165 177 193 202 169 143 165 194 191 197 209 192 208 222 207 241 269 99 109 151 198 216 197 153 264 293 78 98 136 140 157 164 175 186 187 185 183 182 182 180 177 173 169 168 169 168 166 166 166 165 165 164 162 164 163 164 169 168 162 160 158 157 155 150 140 134 127 118 119 118 112 102 86 69 42 46 42 26 20 14 7 3
228 273 166 155 129 166 185 193 108 125 162 194 120 223 233 217 201 217 258 345 34 8 186 189 235 241 214 114 118 194 161 158 142 141 154 161 175 184 187 188 187 186 186 184 180 176 174 174 174 172 171 172 173 172 170 169 169 171 171 170 174 177 170 166 165 162 160 157 148 143 142 138 141 146 158 185 221 246 279 318 334 341 345 345 344 344
212 276 98 74 103 172 185 153 135 165 170 149 180 201 208 347 69 148 203 84 73 270 228 174 229 250 245 241 158 166 187 163 154 159 159 162 172 183 189 191 191 189 189 186 182 180 179 180 179 177 178 179 178 176 174 174 175 177 179 178 179 182 178 173 173 170 168 169 164 160 162 166 172 184 200 215 227 240 252 275 298 310 315 318 321 322
202 249 143 142 169 175 26 113 112 333 130 139 191 188 126 24 332 219 242 180 190 253 253 182 218 209 192 213 151 165 193 186 179 168 160 173 180 189 196 196 194 192 191 188 185 185 185 184 183 183 184 184 183 181 180 181 182 183 185 186 186 188 186 183 181 180 180 181 180 178 181 189 196 205 214 220 227 236 247 261 275 283 286 289 293 297
206 234 168 129 165 116 113 171 154 221 255 158 200 164 128 224 211 179 224 233 203 239 255 199 211 215 204 195 167 183 198 194 182 162 168 190 192 198 201 199 197 195 193 192 190 190 190 189 188 188 188 187 186 185 185 187 189 190 191 191 193 195 195 193 191 190 191 191 193 194 197 202 209 215 219 223 230 239 246 253 257 262 265 269 275 279
187 239 217 104 36 113 139 206 193 181 188 0 179 175 214 270 218 176 193 223 213 231 245 211 202 212 207 189 177 186 195 185 167 166 194 202 201 203 203 200 199 196 195 195 194 194 194 193 192 192 191 191 190 189 191 194 196 196 196 196 197 199 200 199 199 199 200 201 203 206 208 211 215 220 223 227 234 240 244 247 249 252 255 258 262 267
143 226 224 113 89 174 181 206 203 186 173 173 185 184 187 196 238 255 229 198 223 233 236 249 251 209 172 185 181 182 187 173 164 181 201 204 206 208 205 202 200 199 199 199 197 198 198 196 196 196 195 194 194 195 197 199 201 202 202 202 202 203 204 204 205 205 207 209 210 213 216 218 222 224 228 233 237 240 242 243 245 247 250 254 259 267
175 204 194 145 184 203 202 219 246 216 189 186 193 189 188 179 160 204 218 178 191 249 231 255 273 219 137 282 196 159 159 154 172 194 204 208 211 211 210 207 204 203 204 203 202 202 201 200 200 198 197 197 199 201 203 204 206 207 207 207 208 209 209 210 211 210 212 214 216 218 220 223 227 229 232 235 237 239 240 241 243 244 247 252 258 271
138 120 187 175 202 207 227 27 343 294 296 269 237 208 194 190 181 200 217 170 160 228 276 328 287 295 114 286 4 75 51 11 214 214 217 221 217 216 216 214 210 208 208 208 206 206 206 204 203 201 201 202 204 206 207 208 210 210 211 212 212 213 213 214 214 215 217 219 220 223 225 227 231 233 235 237 236 237 238 238 240 240 242 248 260 281
115 170 200 195 210 119 73 131 166 1 301 246 243 216 203 209 198 207 230 149 181 198 160 196 245 230 167 200 44 12 330 286 237 217 214 219 219 219 221 218 213 211 211 211 211 211 210 208 206 205 205 207 209 210 210 212 213 214 214 215 216 216 217 217 217 219 221 223 225 226 228 229 231 233 235 236 235 236 236 235 235 234 238 250 269 293
163 185 185 180 204 201 192 200 203 194 198 224 224 191 202 207 169 129 95 141 229 201 169 203 239 189 157 127 36 335 290 264 243 224 217 217 217 218 218 218 215 212 213 214 214 214 213 211 209 209 209 211 212 213 213 214 216 218 218 219 219 219 219 220 221 223 224 226 227 229 229 229 231 232 234 234 234 235 233 230 229 232 243 259 278 299
170 178 176 187 206 206 204 210 211 188 175 214 204 179 200 199 179 173 167 199 225 179 167 210 232 160 116 334 268 239 244 245 236 224 220 218 216 215 210 208 209 211 215 217 217 217 216 213 212 211 212 214 215 216 216 217 219 221 222 222 222 222 223 224 225 226 227 227 228 229 230 230 231 233 234 234 234 232 227 226 229 237 252 269 286 302
159 201 190 203 214 213 218 225 161 125 153 198 194 185 199 200 191 189 197 210 196 142 198 218 209 195 203 206 221 216 208 223 219 205 211 209 205 203 199 197 199 206 214 217 218 219 218 216 215 214 215 217 218 219 219 220 223 224 224 224 224 224 225 227 229 229 229 230 230 232 233 234 235 235 236 235 231 227 224 226 234 244 258 274 289 300
80 220 206 216 223 223 243 251 171 157 183 200 191 189 199 196 191 196 210 205 137 153 233 197 155 215 212 181 199 209 200 215 208 191 198 198 196 195 192 194 198 205 213 217 219 221 221 220 218 217 218 219 221 222 222 225 227 228 228 228 227 227 229 231 233 233 233 233 233 235 236 236 237 237 237 234 228 225 226 232 240 251 262 274 285 295
182 223 214 218 227 230 174 155 213 192 196 201 192 194 195 188 189 198 212 206 157 203 242 157 159 219 217 168 189 200 193 200 192 190 195 192 195 196 191 195 200 205 213 218 222 225 225 224 221 220 221 222 223 224 225 228 231 231 231 231 231 232 233 235 236 237 237 236 236 237 238 238 239 238 236 232 229 229 232 238 246 255 264 272 281 290
192 223 200 192 227 234 202 174 202 187 190 211 206 204 199 193 193 196 207 208 196 222 242 156 182 231 207 155 190 192 186 188 182 186 190 188 192 192 190 197 203 211 218 222 226 228 228 228 226 225 225 225 226 227 228 231 233 233 234 236 236 237 237 237 238 238 238 238 238 239 239 239 239 238 236 233 233 235 239 244 251 258 264 271 278 285
192 207 133 138 224 232 199 176 182 188 200 218 226 223 208 190 185 196 208 208 208 230 244 226 248 252 187 155 173 165 166 169 170 179 183 186 191 191 194 201 205 211 216 219 223 227 229 231 230 229 228 228 228 229 231 234 236 238 241 244 245 244 241 239 238 237 238 240 241 240 239 240 240 239 238 237 238 241 245 250 255 260 265 270 276 282
193 203 104 147 221 227 192 180 184 175 274 258 248 234 210 173 164 193 209 203 202 218 226 231 250 252 186 149 151 155 163 167 170 176 182 189 193 194 200 203 203 205 208 214 222 227 231 232 232 232 231 230 231 232 235 239 242 246 248 249 248 245 241 238 236 237 240 243 243 241 240 241 241 241 241 241 243 246 250 255 258 262 266 271 276 281
181 189 160 180 212 230 193 179 172 128 134 249 244 222 198 185 181 190 211 214 206 202 204 219 235 233 166 150 159 165 175 184 187 189 194 197 195 197 199 197 201 210 215 223 230 232 235 235 234 235 235 234 235 237 241 245 247 249 250 249 248 244 240 237 237 238 241 244 244 242 241 242 243 243 244 245 249 252 255 259 262 265 269 273 277 279
177 189 194 189 203 228 177 149 142 168 213 242 250 195 189 193 192 195 211 213 207 203 206 214 213 172 153 162 175 183 194 206 211 211 212 212 207 208 209 210 220 230 231 232 233 233 235 235 234 234 233 233 234 234 236 239 241 243 244 245 245 243 240 239 238 239 242 244 244 243 243 244 244 245 247 250 253 257 260 264 267 270 273 274 276 277
176 189 195 187 189 182 137 139 166 214 224 251 351 290 196 194 194 202 215 214 206 208 216 223 203 171 162 174 185 191 199 207 215 218 220 223 221 220 222 225 232 236 236 237 237 235 234 232 232 234 233 231 229 226 226 227 229 230 229 228 230 231 234 235 236 239 241 243 244 244 244 245 246 247 250 253 257 261 265 268 271 272 274 274 274 275
178 187 184 173 172 137 153 179 196 240 222 100 11 357 61 111 172 198 226 231 214 207 212 222 224 197 154 166 171 173 190 201 215 224 222 221 222 221 224 228 231 233 235 235 233 231 231 231 232 231 227 224 221 219 220 221 221 223 223 223 223 223 224 228 231 236 239 241 243 243 244 246 248 251 253 256 260 264 267 270 271 272 273 272 272 273
188 189 182 194 188 144 183 206 238 336 279 171 147 191 176 148 159 180 218 235 211 200 201 212 224 203 146 153 157 151 161 176 231 242 230 225 225 225 227 228 227 225 223 219 217 218 219 221 220 215 214 215 217 219 220 220 222 224 224 223 223 221 220 222 226 231 235 238 239 240 243 247 251 255 259 261 264 267 269 270 270 270 271 270 270 272
203 197 190 204 199 130 165 215 242 268 246 195 149 191 206 184 137 154 205 247 193 190 191 196 214 201 151 138 148 144 142 166 252 245 232 228 228 225 224 219 213 211 210 209 211 211 210 210 209 210 215 220 223 226 226 226 227 226 225 225 224 223 223 224 228 231 232 235 238 241 247 251 255 259 261 263 265 267 268 269 268 268 268 268 268 269
101 140 193 208 194 157 188 216 212 225 244 134 111 165 182 148 125 109 171 254 174 184 188 190 201 187 160 158 158 148 146 210 232 235 230 226 220 214 211 206 203 205 206 207 210 211 210 212 213 217 224 227 230 232 231 230 230 229 231 232 230 229 229 230 232 232 234 239 243 247 250 252 254 257 259 261 263 264 264 264 264 265 265 265 266 267
133 154 203 215 203 188 204 221 224 243 264 106 122 156 163 155 135 118 247 257 180 185 187 187 194 183 168 168 163 153 185 212 226 248 230 204 189 189 192 195 198 201 203 204 207 210 212 215 220 225 231 232 231 230 226 225 225 228 232 234 232 232 232 233 235 238 242 245 245 246 248 249 252 257 262 265 265 263 262 262 262 262 263 263 265 267
153 151 182 211 218 210 212 220 260 269 224 154 176 171 155 136 141 181 229 165 160 182 183 182 193 189 174 171 172 187 215 215 223 237 198 177 174 178 181 187 192 195 198 200 205 210 215 221 228 233 235 233 226 221 219 220 224 228 231 231 230 230 232 236 242 244 243 242 241 242 245 247 251 258 263 267 268 266 265 264 263 263 263 263 265 268
160 138 155 204 211 209 223 239 275 269 183 138 142 163 157 140 178 194 152 133 155 173 177 182 194 194 186 188 194 205 214 211 204 188 174 177 185 184 182 186 189 192 196 199 205 212 218 226 233 234 232 225 219 217 219 223 228 231 231 230 231 233 237 243 246 243 240 240 242 245 248 249 253 258 262 266 268 267 267 265 264 264 263 264 267 270
160 146 170 204 177 150 246 221 225 277 166 141 132 130 201 205 145 136 136 141 156 169 177 185 195 198 198 203 207 209 210 200 191 187 182 185 187 186 190 194 194 197 201 205 211 219 228 237 242 242 234 224 219 220 223 228 233 233 233 235 237 239 243 245 245 243 242 244 247 249 251 253 255 258 263 266 268 267 266 265 264 264 264 265 268 272
179 166 181 208 177 160 205 205 207 328 164 158 148 142 194 174 130 130 142 155 170 178 183 188 195 201 203 205 206 207 206 197 191 192 191 190 191 193 198 201 201 202 206 212 221 229 239 248 251 247 237 227 223 225 227 231 235 236 238 241 242 242 244 245 245 245 245 247 250 251 252 253 255 260 263 266 267 267 266 265 264 264 264 267 270 274
215 173 156 201 180 152 156 199 250 64 168 171 159 86 166 159 133 135 150 166 178 186 193 195 198 200 199 198 200 203 206 204 201 201 202 202 202 202 204 205 206 209 214 220 228 236 244 251 252 247 239 232 228 227 229 233 238 241 244 246 245 244 246 246 246 247 248 249 251 251 251 253 256 260 263 265 266 267 266 265 264 264 266 268 271 275
349 48 62 47 172 139 50 141 110 98 173 175 155 109 156 157 143 150 174 187 187 193 199 199 200 198 194 194 198 201 207 211 212 214 214 212 210 209 209 210 211 215 223 229 235 244 249 251 250 246 241 237 232 231 232 236 241 246 250 250 248 247 248 248 248 249 250 250 250 250 249 252 256 260 262 264 266 267 266 265 265 265 267 269 272 275
293 159 145 38 189 191 146 151 133 9 186 184 177 141 155 163 164 172 187 193 193 199 200 196 198 199 197 200 204 207 211 214 216 220 222 220 218 214 212 214 217 223 232 238 242 247 248 248 248 246 243 240 236 235 236 239 245 251 253 252 250 249 250 250 250 252 251 251 250 249 249 252 255 258 261 264 266 267 267 266 266 266 268 270 272 276
169 159 169 225 205 167 68 152 335 337 203 200 202 190 172 174 178 183 190 193 195 201 201 195 196 200 204 209 212 215 219 219 218 222 225 228 229 223 217 219 223 230 238 242 243 243 246 249 250 249 246 244 241 239 239 242 248 252 254 254 253 251 251 251 252 253 253 252 250 249 249 251 253 255 259 263 266 267 268 268 267 267 268 270 273 276
135 154 172 155 131 115 32 229 209 6 260 219 214 206 199 195 191 191 196 200 199 200 201 201 204 208 211 215 217 221 225 225 225 227 229 232 236 232 226 224 229 236 242 244 244 246 249 253 255 254 253 250 246 242 242 245 249 252 254 256 256 254 253 253 253 254 254 252 249 248 247 248 250 253 256 260 262 265 267 268 268 268 270 272 274 277
141 166 161 122 160 196 188 179 178 152 56 212 206 204 206 208 203 201 206 210 209 207 206 206 210 214 217 220 223 226 230 233 234 236 238 240 240 237 233 231 235 242 247 247 248 249 251 254 257 257 256 255 250 246 245 247 250 252 254 256 257 257 256 255 255 255 254 252 249 246 246 247 248 251 254 257 260 262 265 266 268 270 272 273 275 277
182 192 170 150 180 224 181 180 182 175 146 193 194 198 204 207 208 210 214 218 220 219 217 217 220 224 228 232 235 238 241 244 246 247 248 248 246 243 239 238 242 249 253 254 254 254 256 257 257 256 256 256 254 251 250 250 251 253 255 256 257 258 257 255 255 255 254 252 248 245 245 246 248 249 252 255 258 261 264 266 268 270 272 273 274 276